Location: Ajisawe
(8.4333°N, 4.3833°E)
Time: 00:18:17
(UTC+00:00)

S-56A Canister/Altair - Pass Details

Date: 19 April 2021
Orbit: 631 x 2501 km, 38.9° (Epoch: 15 May)

Event Time Altitude Azimuth Distance (km) Brightness Sun altitude
Rises 19:37:35 0° 226° (SW) 6,052 12.5 -26.2°
Reaches altitude 10° 19:41:48 10° 225° (SW) 4,899 11.9 -27.2°
Maximum altitude 19:55:16 81° 139° (SE) 1,817 9.1 -30.3°
Enters shadow 19:58:46 48° 60° (ENE) 2,035 9.3 -31.2°
